| time (UTC) | temp F | wind direction | speed knots | gust knots | rain 1hr in | rain 24hr in | rain mn in | humidity % | barometer mb |
| 20260504193015 | 55 | 270 | 6.1 | 13.9 | 0.00 | 0.00 | 0.00 | 36 | 1000.9 |
| 20260504192506 | 55 | 271 | 5.2 | 13.0 | 0.00 | 0.00 | 0.00 | 38 | 1001.0 |
| 20260504192008 | 55 | 240 | 5.2 | 13.0 | 0.00 | 0.00 | 0.00 | 37 | 1000.9 |
| 20260504191515 | 55 | 274 | 4.3 | 13.0 | 0.00 | 0.00 | 0.00 | 36 | 1000.9 |
| 20260504191005 | 55 | 254 | 4.3 | 13.0 | 0.00 | 0.00 | 0.00 | 38 | 1000.9 |
| 20260504190504 | 55 | 329 | 7.0 | 13.0 | 0.00 | 0.00 | 0.00 | 35 | 1001.0 |
| 20260504190012 | 55 | 199 | 7.8 | 13.0 | 0.00 | 0.00 | 0.00 | 34 | 1001.0 |
| 20260504185505 | 54 | 250 | 7.8 | 13.0 | 0.00 | 0.00 | 0.00 | 35 | 1001.0 |
| 20260504185007 | 54 | 262 | 5.2 | 14.8 | 0.00 | 0.00 | 0.00 | 37 | 1001.2 |
| 20260504184516 | 54 | 245 | 8.7 | 14.8 | 0.00 | 0.00 | 0.00 | 36 | 1001.1 |
| 20260504184006 | 55 | 225 | 7.0 | 12.2 | 0.00 | 0.00 | 0.00 | 36 | 1001.1 |
| 20260504183506 | 55 | 236 | 4.3 | 12.2 | 0.00 | 0.00 | 0.00 | 35 | 1001.2 |
| 20260504183015 | 54 | 241 | 6.1 | 13.0 | 0.00 | 0.00 | 0.00 | 34 | 1001.2 |
| 20260504182503 | 55 | 252 | 6.1 | 13.0 | 0.00 | 0.00 | 0.00 | 33 | 1001.1 |
| 20260504182005 | 54 | 245 | 7.0 | 13.9 | 0.00 | 0.00 | 0.00 | 32 | 1001.2 |
| 20260504181504 | 54 | 232 | 7.0 | 13.9 | 0.00 | 0.00 | 0.00 | 33 | 1001.2 |
| 20260504181004 | 55 | 267 | 4.3 | 11.3 | 0.00 | 0.00 | 0.00 | 35 | 1001.2 |
| 20260504180504 | 55 | 215 | 6.1 | 10.4 | 0.00 | 0.00 | 0.00 | 33 | 1001.2 |
| 20260504180010 | 54 | 238 | 6.1 | 11.3 | 0.00 | 0.00 | 0.00 | 33 | 1001.1 |
| 20260504175504 | 54 | 250 | 6.1 | 12.2 | 0.00 | 0.00 | 0.00 | 35 | 1001.3 |
| 20260504175006 | 54 | 233 | 6.1 | 12.2 | 0.00 | 0.00 | 0.00 | 34 | 1001.4 |
| 20260504174515 | 54 | 271 | 6.1 | 12.2 | 0.00 | 0.00 | 0.00 | 34 | 1001.4 |
| 20260504174004 | 54 | 278 | 6.1 | 12.2 | 0.00 | 0.00 | 0.00 | 36 | 1001.4 |
| 20260504173504 | 53 | 332 | 4.3 | 11.3 | 0.00 | 0.00 | 0.00 | 36 | 1001.5 |
| 20260504173016 | 53 | 182 | 4.3 | 11.3 | 0.00 | 0.00 | 0.00 | 38 | 1001.5 |
| 20260504172507 | 52 | 278 | 6.1 | 11.3 | 0.00 | 0.00 | 0.00 | 35 | 1001.6 |
| 20260504172010 | 52 | 232 | 7.0 | 11.3 | 0.00 | 0.00 | 0.00 | 38 | 1001.6 |
| 20260504171515 | 52 | 317 | 3.5 | 12.2 | 0.00 | 0.00 | 0.00 | 39 | 1001.7 |
| 20260504171008 | 52 | 273 | 5.2 | 13.0 | 0.00 | 0.00 | 0.00 | 38 | 1001.8 |
| 20260504170504 | 52 | 243 | 7.8 | 13.0 | 0.00 | 0.00 | 0.00 | 37 | 1001.9 |
| 20260504151008 | 49 | 245 | 10.4 | 14.8 | 0.00 | 0.00 | 0.00 | 46 | 1002.3 |
| 20260504150507 | 49 | 273 | 7.8 | 14.8 | 0.00 | 0.00 | 0.00 | 47 | 1002.4 |
| 20260504141006 | 47 | 232 | 7.0 | 14.8 | 0.00 | 0.00 | 0.00 | 54 | 1002.5 |
| 20260504140506 | 47 | 271 | 9.6 | 16.5 | 0.00 | 0.00 | 0.00 | 54 | 1002.5 |
| 20260504130507 | 44 | 218 | 6.1 | 15.6 | 0.00 | 0.00 | 0.00 | 63 | 1002.7 |
| 20260504110504 | 39 | 261 | 7.0 | 13.0 | 0.00 | 0.00 | 0.00 | 74 | 1003.1 |
| 20260504100503 | 37 | 227 | 1.7 | 6.1 | 0.00 | 0.00 | 0.00 | 77 | 1003.2 |
| 20260504082007 | 39 | 242 | 4.3 | 8.7 | 0.00 | 0.00 | 0.00 | 78 | 1002.8 |
| 20260504081524 | 39 | 233 | 3.5 | 8.7 | 0.00 | 0.00 | 0.00 | 79 | 1002.8 |
| 20260504081007 | 39 | 268 | 3.5 | 7.8 | 0.00 | 0.00 | 0.00 | 79 | 1002.7 |
| 20260504080510 | 39 | 273 | 3.5 | 7.0 | 0.00 | 0.00 | 0.00 | 80 | 1002.8 |
| 20260504050508 | 38 | 260 | 2.6 | 5.2 | 0.00 | 0.00 | 0.00 | 91 | 1003.6 |
| 20260504050024 | 38 | 245 | 2.6 | 5.2 | 0.00 | 0.00 | 0.00 | 91 | 1003.7 |
| 20260504045509 | 38 | 273 | 1.7 | 3.5 | 0.00 | 0.00 | 0.00 | 91 | 1003.7 |
| 20260504045007 | 38 | 246 | 0.9 | 3.5 | 0.00 | 0.00 | 0.00 | 91 | 1003.8 |
| 20260504044534 | 38 | 261 | 2.6 | 5.2 | 0.00 | 0.00 | 0.00 | 91 | 1003.9 |
| 20260504044004 | 38 | 293 | 1.7 | 5.2 | 0.00 | 0.00 | 0.00 | 90 | 1003.9 |
| 20260504043506 | 38 | 283 | 1.7 | 3.5 | 0.00 | 0.00 | 0.00 | 90 | 1003.9 |
| 20260504043019 | 38 | 284 | 1.7 | 3.5 | 0.00 | 0.00 | 0.00 | 90 | 1004.2 |
| 20260504042503 | 38 | 269 | 1.7 | 3.5 | 0.00 | 0.00 | 0.00 | 90 | 1004.2 |
| 20260504042003 | 38 | 260 | 1.7 | 3.5 | 0.00 | 0.00 | 0.00 | 90 | 1004.2 |
| 20260504041517 | 38 | 278 | 1.7 | 3.5 | 0.00 | 0.00 | 0.00 | 90 | 1004.3 |
| 20260504041004 | 38 | 275 | 0.0 | 1.7 | 0.00 | 0.00 | 0.00 | 90 | 1004.4 |
| 20260504040508 | 38 | 275 | 0.9 | 3.5 | 0.00 | 0.01 | 0.00 | 90 | 1004.4 |
| 20260504040023 | 38 | 275 | 0.9 | 3.5 | 0.00 | 0.01 | 0.00 | 90 | 1004.5 |
| 20260504035507 | 38 | 280 | 1.7 | 3.5 | 0.00 | 0.01 | 0.01 | 90 | 1004.5 |
| 20260504035007 | 38 | 323 | 0.9 | 3.5 | 0.00 | 0.02 | 0.01 | 91 | 1004.5 |
| 20260504034525 | 38 | 283 | 0.9 | 3.5 | 0.00 | 0.02 | 0.01 | 91 | 1004.5 |
| 20260504034007 | 38 | 266 | 1.7 | 3.5 | 0.00 | 0.03 | 0.01 | 91 | 1004.6 |
| 20260504033508 | 38 | 277 | 1.7 | 3.5 | 0.00 | 0.03 | 0.01 | 91 | 1004.6 |
| 20260504033009 | 38 | 246 | 1.7 | 3.5 | 0.00 | 0.03 | 0.01 | 91 | 1004.6 |
| 20260504032504 | 38 | 287 | 0.9 | 6.1 | 0.00 | 0.03 | 0.01 | 91 | 1004.6 |
| 20260504032004 | 38 | 250 | 1.7 | 7.0 | 0.00 | 0.03 | 0.01 | 90 | 1004.5 |
| 20260504031519 | 38 | 261 | 1.7 | 7.0 | 0.00 | 0.03 | 0.01 | 91 | 1004.6 |
| 20260504031005 | 38 | 271 | 0.9 | 3.5 | 0.00 | 0.03 | 0.01 | 90 | 1004.6 |
| 20260504030507 | 38 | 302 | 1.7 | 3.5 | 0.00 | 0.03 | 0.01 | 90 | 1004.7 |
| 20260504030021 | 38 | 273 | 0.9 | 3.5 | 0.00 | 0.03 | 0.01 | 90 | 1004.7 |
| 20260504025506 | 38 | 277 | 1.7 | 3.5 | 0.00 | 0.03 | 0.01 | 90 | 1004.7 |
| 20260504025006 | 38 | 262 | 1.7 | 3.5 | 0.00 | 0.03 | 0.01 | 90 | 1004.6 |
| 20260504024524 | 38 | 248 | 1.7 | 2.6 | 0.00 | 0.03 | 0.01 | 90 | 1004.7 |
| 20260504024008 | 38 | 268 | 0.9 | 2.6 | 0.00 | 0.03 | 0.01 | 90 | 1004.8 |
| 20260504023507 | 39 | 281 | 0.9 | 2.6 | 0.00 | 0.03 | 0.01 | 90 | 1004.8 |
| 20260504023028 | 39 | 336 | 0.9 | 2.6 | 0.00 | 0.03 | 0.01 | 90 | 1004.7 |
| 20260504022511 | 39 | 284 | 0.9 | 2.6 | 0.00 | 0.03 | 0.01 | 90 | 1004.7 |
| 20260504022010 | 39 | 261 | 1.7 | 2.6 | 0.00 | 0.03 | 0.01 | 91 | 1004.8 |
| 20260504021514 | 38 | 226 | 0.9 | 2.6 | 0.00 | 0.03 | 0.01 | 90 | 1004.9 |
| 20260504021002 | 38 | 246 | 1.7 | 2.6 | 0.00 | 0.03 | 0.01 | 90 | 1004.9 |
| 20260504020504 | 38 | 233 | 1.7 | 2.6 | 0.00 | 0.03 | 0.01 | 90 | 1004.9 |
| 20260504020014 | 38 | 274 | 1.7 | 2.6 | 0.00 | 0.03 | 0.01 | 91 | 1005.0 |
| 20260504015507 | 38 | 274 | 1.7 | 1.7 | 0.00 | 0.03 | 0.01 | 91 | 1005.1 |
| 20260504015007 | 38 | 274 | 0.9 | 1.7 | 0.00 | 0.03 | 0.01 | 90 | 1005.1 |
| 20260504014522 | 38 | 274 | 0.9 | 1.7 | 0.00 | 0.03 | 0.01 | 90 | 1005.1 |
| 20260504014006 | 38 | 279 | 0.9 | 1.7 | 0.00 | 0.03 | 0.01 | 91 | 1005.1 |
| 20260504013509 | 38 | 299 | 0.0 | 1.7 | 0.00 | 0.03 | 0.01 | 91 | 1005.1 |
| 20260504013023 | 38 | 317 | 0.0 | 1.7 | 0.00 | 0.03 | 0.01 | 91 | 1005.2 |
| 20260504012507 | 38 | 317 | 0.0 | 1.7 | 0.00 | 0.03 | 0.01 | 91 | 1005.1 |
| 20260504012008 | 38 | 322 | 0.0 | 1.7 | 0.00 | 0.03 | 0.01 | 91 | 1005.2 |
| 20260504011526 | 38 | 321 | 0.9 | 1.7 | 0.00 | 0.03 | 0.01 | 91 | 1005.2 |
| 20260504011012 | 38 | 289 | 0.9 | 1.7 | 0.00 | 0.03 | 0.01 | 91 | 1005.2 |
| 20260504010509 | 38 | 352 | 0.0 | 1.7 | 0.00 | 0.03 | 0.01 | 91 | 1005.3 |
| 20260504010010 | 38 | 327 | 0.9 | 2.6 | 0.00 | 0.03 | 0.01 | 91 | 1005.3 |
| 20260504005506 | 38 | 55 | 0.9 | 2.6 | 0.00 | 0.03 | 0.01 | 90 | 1005.3 |
| 20260504005006 | 38 | 60 | 0.9 | 4.3 | 0.00 | 0.03 | 0.01 | 90 | 1005.2 |
| 20260504004519 | 38 | 53 | 0.9 | 5.2 | 0.00 | 0.03 | 0.01 | 90 | 1005.1 |
| 20260504004007 | 38 | 52 | 1.7 | 7.0 | 0.00 | 0.03 | 0.01 | 90 | 1005.1 |
| 20260504003511 | 38 | 76 | 3.5 | 7.0 | 0.00 | 0.03 | 0.01 | 90 | 1005.1 |
| 20260504003022 | 38 | 40 | 2.6 | 7.0 | 0.00 | 0.03 | 0.01 | 89 | 1005.1 |
| 20260504002508 | 38 | 36 | 3.5 | 6.1 | 0.00 | 0.03 | 0.01 | 89 | 1005.1 |
| 20260504002010 | 38 | 25 | 2.6 | 6.1 | 0.00 | 0.03 | 0.01 | 89 | 1005.0 |
| 20260504001527 | 38 | 36 | 1.7 | 6.1 | 0.00 | 0.03 | 0.01 | 89 | 1005.0 |
| 20260504001010 | 38 | 26 | 0.9 | 6.1 | 0.00 | 0.03 | 0.01 | 89 | 1005.0 |
| 20260504000510 | 39 | 42 | 3.5 | 7.8 | 0.00 | 0.03 | 0.01 | 88 | 1005.0 |
| 20260504000028 | 39 | 53 | 2.6 | 8.7 | 0.00 | 0.03 | 0.01 | 88 | 1005.0 |
| 20260503235506 | 39 | 15 | 4.3 | 8.7 | 0.00 | 0.03 | 0.01 | 88 | 1005.1 |
| 20260503235004 | 39 | 55 | 1.7 | 7.0 | 0.00 | 0.03 | 0.01 | 88 | 1005.1 |
| 20260503234519 | 39 | 36 | 2.6 | 7.0 | 0.00 | 0.03 | 0.01 | 87 | 1005.1 |
| 20260503234006 | 39 | 16 | 2.6 | 7.8 | 0.00 | 0.03 | 0.01 | 87 | 1005.1 |
| 20260503233506 | 40 | 340 | 2.6 | 7.8 | 0.00 | 0.03 | 0.01 | 86 | 1005.0 |
| 20260503233019 | 40 | 317 | 3.5 | 7.8 | 0.00 | 0.03 | 0.01 | 86 | 1004.9 |
| 20260503232508 | 40 | 360 | 3.5 | 8.7 | 0.00 | 0.03 | 0.01 | 85 | 1005.0 |
| 20260503232007 | 41 | 332 | 3.5 | 8.7 | 0.00 | 0.03 | 0.01 | 84 | 1004.9 |
| 20260503231524 | 41 | 319 | 2.6 | 7.0 | 0.00 | 0.03 | 0.01 | 84 | 1004.9 |
| 20260503231008 | 42 | 286 | 2.6 | 7.0 | 0.00 | 0.03 | 0.01 | 84 | 1004.9 |
| 20260503230508 | 42 | 260 | 4.3 | 7.0 | 0.00 | 0.03 | 0.01 | 81 | 1004.9 |
| 20260503230025 | 44 | 238 | 2.6 | 6.1 | 0.00 | 0.03 | 0.01 | 80 | 1004.8 |
| 20260503225509 | 44 | 275 | 0.9 | 3.5 | 0.00 | 0.03 | 0.01 | 80 | 1004.8 |
| 20260503225012 | 44 | 286 | 0.9 | 6.1 | 0.00 | 0.03 | 0.01 | 81 | 1004.8 |
| 20260503224527 | 44 | 269 | 2.6 | 6.1 | 0.00 | 0.03 | 0.01 | 80 | 1004.9 |
| 20260503224009 | 45 | 259 | 1.7 | 5.2 | 0.00 | 0.03 | 0.01 | 76 | 1004.9 |
| 20260503223505 | 46 | 292 | 0.9 | 7.0 | 0.00 | 0.03 | 0.01 | 76 | 1004.9 |
| 20260503223017 | 46 | 296 | 2.6 | 7.0 | 0.00 | 0.03 | 0.01 | 74 | 1005.0 |
| 20260503222506 | 46 | 318 | 3.5 | 6.1 | 0.00 | 0.03 | 0.01 | 74 | 1005.0 |
| 20260503222006 | 47 | 340 | 1.7 | 5.2 | 0.00 | 0.03 | 0.01 | 73 | 1004.9 |
| 20260503221521 | 47 | 331 | 2.6 | 7.0 | 0.00 | 0.03 | 0.01 | 73 | 1004.9 |
| 20260503221009 | 48 | 342 | 3.5 | 7.0 | 0.00 | 0.03 | 0.01 | 72 | 1004.9 |
| 20260503220513 | 48 | 346 | 1.7 | 4.3 | 0.00 | 0.03 | 0.01 | 71 | 1005.0 |
| 20260503220026 | 49 | 58 | 1.7 | 7.8 | 0.00 | 0.03 | 0.01 | 68 | 1004.9 |
| 20260503215509 | 48 | 352 | 1.7 | 7.8 | 0.00 | 0.03 | 0.01 | 69 | 1004.9 |
| 20260503215009 | 48 | 41 | 1.7 | 6.1 | 0.00 | 0.03 | 0.01 | 69 | 1004.9 |
| 20260503214539 | 48 | 21 | 2.6 | 7.0 | 0.00 | 0.03 | 0.01 | 70 | 1004.9 |
| 20260503214009 | 48 | 55 | 3.5 | 7.0 | 0.00 | 0.03 | 0.01 | 69 | 1004.9 |
| 20260503213511 | 48 | 75 | 3.5 | 7.0 | 0.00 | 0.03 | 0.01 | 70 | 1005.1 |
| 20260503213027 | 47 | 41 | 4.3 | 7.8 | 0.00 | 0.03 | 0.01 | 71 | 1005.1 |
| 20260503212510 | 47 | 57 | 4.3 | 8.7 | 0.00 | 0.03 | 0.01 | 70 | 1005.2 |
| 20260503212009 | 47 | 44 | 4.3 | 8.7 | 0.00 | 0.03 | 0.01 | 70 | 1005.3 |
| 20260503211523 | 47 | 75 | 4.3 | 8.7 | 0.00 | 0.03 | 0.01 | 68 | 1005.4 |
| 20260503211006 | 47 | 53 | 5.2 | 8.7 | 0.00 | 0.03 | 0.01 | 69 | 1005.4 |
| 20260503210506 | 48 | 28 | 3.5 | 7.8 | 0.00 | 0.03 | 0.01 | 69 | 1005.5 |
| 20260503210025 | 48 | 61 | 3.5 | 8.7 | 0.00 | 0.03 | 0.01 | 69 | 1005.5 |
| 20260503205510 | 48 | 47 | 4.3 | 9.6 | 0.00 | 0.03 | 0.01 | 67 | 1005.5 |
| 20260503205011 | 48 | 57 | 3.5 | 9.6 | 0.00 | 0.03 | 0.01 | 68 | 1005.5 |
| 20260503204530 | 48 | 28 | 5.2 | 9.6 | 0.00 | 0.03 | 0.01 | 67 | 1005.4 |
| 20260503204011 | 48 | 91 | 3.5 | 7.0 | 0.00 | 0.03 | 0.01 | 66 | 1005.4 |
| 20260503203510 | 48 | 60 | 3.5 | 5.2 | 0.00 | 0.03 | 0.01 | 66 | 1005.4 |
| 20260503203028 | 48 | 55 | 2.6 | 5.2 | 0.00 | 0.03 | 0.01 | 63 | 1005.5 |
| 20260503202510 | 48 | 49 | 2.6 | 7.8 | 0.00 | 0.03 | 0.01 | 62 | 1005.5 |
| 20260503202015 | 48 | 11 | 5.2 | 7.0 | 0.00 | 0.03 | 0.01 | 60 | 1005.6 |
| 20260503201518 | 48 | 36 | 2.6 | 7.8 | 0.00 | 0.03 | 0.01 | 63 | 1005.6 |
| 20260503201011 | 48 | 51 | 4.3 | 7.8 | 0.00 | 0.03 | 0.01 | 64 | 1005.6 |
| 20260503200509 | 49 | 49 | 1.7 | 7.0 | 0.00 | 0.03 | 0.01 | 64 | 1005.7 |
| 20260503200033 | 49 | 22 | 3.5 | 7.0 | 0.00 | 0.03 | 0.01 | 63 | 1005.7 |
| 20260503195510 | 49 | 315 | 3.5 | 7.0 | 0.00 | 0.03 | 0.01 | 67 | 1005.7 |
| 20260503195012 | 49 | 344 | 3.5 | 7.8 | 0.00 | 0.03 | 0.01 | 66 | 1005.7 |
| 20260503194527 | 49 | 333 | 4.3 | 7.8 | 0.00 | 0.03 | 0.01 | 66 | 1005.8 |
| 20260503194008 | 49 | 360 | 1.7 | 5.2 | 0.00 | 0.03 | 0.01 | 70 | 1005.8 |
| 20260503193508 | 48 | 326 | 1.7 | 7.0 | 0.00 | 0.03 | 0.01 | 72 | 1005.9 |